Location: Rochester
(43.1610°N, 77.6109°W)
Time: 12:16:46
(UTC-05:00)

ISS - Visible Passes

Search period start: 18 February 2019 00:00
Search period end: 28 February 2019 00:00
Orbit: 403 x 411 km, 51.6° (Epoch: 19 February)

Date Brightness Start Highest point End Pass type
(mag) Time Alt. Az. Time Alt. Az. Time Alt. Az.
22 Feb -1.0 05:59:50 10° S 06:02:06 18° SE 06:04:23 10° E visible
24 Feb -2.6 05:52:17 10° SSW 05:55:22 41° SE 05:58:29 10° ENE visible
25 Feb -1.7 05:02:51 19° SSE 05:03:58 23° SE 05:06:38 10° E visible
26 Feb -0.5 04:13:49 11° ESE 04:13:49 11° ESE 04:14:11 10° ESE visible
26 Feb -3.9 05:46:33 19° WSW 05:48:45 82° NNW 05:52:01 10° NE visible
27 Feb -3.3 04:57:21 54° SE 04:57:21 54° SE 05:00:26 10° ENE visible
